User: anonymous
Location: Unspecified
(0.0000°N, 0.0000°E)
Time: 17:08:35
(UTC+02:00)
Language:

Coronas F rocket - Orbit

View from above orbital plane
View from above orbital plane
View from above satellite
View from above satellite

Ground track
Ground track

The orbit data is extracted from the following two-line orbital elements,

1 26874U 01032B   14293.80507825  .00027451  00000-0  40341-3 0  8282
2 26874 082.4744 211.4501 0012130 321.7991 038.2402 15.55240825740806
Epoch (UTC): 20 October 2014 19:19:18
Eccentricity: 0.0012130
inclination: 82.4744°
perigee height: 393 km
apogee height: 409 km
right ascension of ascending node: 211.4501°
argument of perigee: 321.7991°
revolutions per day: 15.55240825
mean anomaly at epoch: 38.2402°
orbit number at epoch: 74080

The dashed part of the orbit path shows where the satellite is in the earth's shadow,  

DLR